Location: Carri�res
(48.9069°N, 2.1792°E)
Time: 21:31:11
(UTC+00:00)

deb Kosmos- 1898 - Pass Details

Date: 27 July 2021
Orbit: 732 x 754 km, 74.0° (Epoch: 27 September)

Event Time Altitude Azimuth Distance (km) Brightness Sun altitude
Exits shadow 02:32:31 11° 176° (S) 2,145 ? -13.7°
Maximum altitude 02:37:05 46° 105° (ESE) 1,003 ? -13.3°
Drops below altitude 10° 02:41:58 10° 34° (NE) 2,274 ? -12.8°
Sets 02:44:25 0° 28° (NNE) 3,206 ? -12.5°
